ウェスト-コホウテク-池村彗星

76P/West-Kohoutek-Ikemura (2000)

English version
Home page
Total 6,336 html files since Dec. 4, 1995
Updated on October 17, 1999

---------------------------------------------------------------------

・ プロフィール

・ 軌道要素

Epoch 2000 May 16.0 TT = JDT 2451680.5
T 2000 June 1.18537 TT                                  Muraoka
q   1.5958474            (2000.0)            P               Q
n   0.15260881     Peri.    0.07256     +0.10127504     -0.85723943
a   3.4680310      Node    84.12488     +0.91250895     -0.12211829
e   0.5398405      Incl.   30.49919     +0.39632156     +0.50022762
P   6.46
>From 214 observations 1975-1994, mean residual 0".99.  Nongravitational
   parameters A1 = +0.01 +/- 0.03, A2 = -0.0962 +/- 0.0010.

・ 星図

・ 光度変化

        m1 = 5.0 + 5 logΔ + 45.0 log r

---------------------------------------------------------------------

軌道要素は村岡健治氏の計算によるものです。
星図は StellaNavigator Ver.2.0 for Windows (アストロアーツ 編著 / アスキー出版局刊) で作成したものです。
光度グラフはComet for Windowsで作成したものです。

---------------------------------------------------------------------

Copyright(C) 1995-2008 Seiichi Yoshida (comet@aerith.net). All rights reserved.